ITY9906 LIRF-LIEE

Flight info

Callsign ITY9906
Flight time 0h 50m
Altitude 29000
Route ESINO DCT ABIDU DCT DEXUL Q125 KOVAS
Aircraft A320/M-SDE3FGHIRWY/LB1

Departure

Time 2026-05-05 19:30
Airport Rome–Fiumicino Leonardo da Vinci International Airport (LIRF)

Arrival

Time 2026-05-05 20:20
Airport Cagliari Elmas Airport (LIEE)
Time Latitude Longitude Altitude Speed Heading
2026-05-05 19:24 41.80688 12.26820 14 ft 0 kts 69°
2026-05-05 19:25 41.80694 12.26838 16 ft 10 kts 69°
2026-05-05 19:25 41.80715 12.26915 14 ft 6 kts 69°
2026-05-05 19:25 41.80758 12.27071 13 ft 14 kts 70°
2026-05-05 19:25 41.80848 12.27126 13 ft 17 kts 340°
2026-05-05 19:26 41.80871 12.27114 13 ft 0 kts 338°
2026-05-05 19:28 41.80892 12.27103 15 ft 13 kts 338°
2026-05-05 19:28 41.80969 12.27056 13 ft 12 kts 321°
2026-05-05 19:28 41.80970 12.26966 13 ft 0 kts 245°
2026-05-05 19:29 41.80891 12.26686 15 ft 72 kts 250°
2026-05-05 19:29 41.80636 12.25767 18 ft 134 kts 249°
2026-05-05 19:30 41.80247 12.24374 53 ft 179 kts 248°
2026-05-05 19:30 41.79782 12.22786 476 ft 193 kts 246°
2026-05-05 19:30 41.79294 12.21047 1065 ft 203 kts 254°
2026-05-05 19:30 41.79202 12.19111 1744 ft 211 kts 270°
2026-05-05 19:31 41.79253 12.17169 2657 ft 207 kts 263°
2026-05-05 19:31 41.79002 12.15317 3473 ft 200 kts 242°
2026-05-05 19:31 41.78182 12.13829 4279 ft 200 kts 219°
2026-05-05 19:31 41.77139 12.12571 5163 ft 203 kts 221°
2026-05-05 19:32 41.76073 12.11300 5865 ft 212 kts 216°
2026-05-05 19:32 41.74795 12.10107 6209 ft 236 kts 213°
2026-05-05 19:32 41.73342 12.08864 6599 ft 259 kts 212°
2026-05-05 19:32 41.71798 12.07575 7392 ft 262 kts 212°
2026-05-05 19:33 41.70231 12.06268 8185 ft 268 kts 213°
2026-05-05 19:33 41.68653 12.04949 9125 ft 267 kts 213°
2026-05-05 19:33 41.67059 12.03611 9921 ft 273 kts 213°
2026-05-05 19:33 41.65420 12.02229 10422 ft 288 kts 213°
2026-05-05 19:34 41.63656 12.00734 10658 ft 311 kts 214°
2026-05-05 19:34 41.61784 11.99144 11196 ft 322 kts 213°
2026-05-05 19:34 41.59874 11.97522 11901 ft 327 kts 214°
2026-05-05 19:35 41.55986 11.94230 13357 ft 336 kts 214°
2026-05-05 19:35 41.53997 11.92550 14026 ft 341 kts 214°
2026-05-05 19:35 41.52138 11.90981 14630 ft 343 kts 214°
2026-05-05 19:35 41.50563 11.89662 15137 ft 345 kts 214°
2026-05-05 19:36 41.48525 11.87950 15793 ft 348 kts 214°
2026-05-05 19:36 41.46461 11.86208 16426 ft 351 kts 214°
2026-05-05 19:36 41.44382 11.84451 17061 ft 355 kts 214°
2026-05-05 19:36 41.42289 11.82686 17701 ft 358 kts 214°
2026-05-05 19:37 41.40290 11.80707 18319 ft 360 kts 224°
2026-05-05 19:37 41.38625 11.78222 18871 ft 361 kts 235°
2026-05-05 19:37 41.37370 11.75317 19461 ft 362 kts 246°
2026-05-05 19:37 41.36486 11.72163 20062 ft 364 kts 250°
2026-05-05 19:38 41.35632 11.68982 20621 ft 367 kts 250°
2026-05-05 19:38 41.34764 11.65771 21201 ft 369 kts 249°
2026-05-05 19:38 41.33887 11.62537 21774 ft 371 kts 249°
2026-05-05 19:38 41.33077 11.59562 22349 ft 373 kts 250°
2026-05-05 19:39 41.32183 11.56286 22624 ft 379 kts 249°
2026-05-05 19:39 41.31280 11.52991 23209 ft 380 kts 249°
2026-05-05 19:39 41.30383 11.49715 23725 ft 382 kts 249°
2026-05-05 19:39 41.29472 11.46390 24154 ft 384 kts 249°
2026-05-05 19:40 41.28556 11.43054 24598 ft 385 kts 249°
2026-05-05 19:40 41.27638 11.39717 25042 ft 385 kts 249°
2026-05-05 19:40 41.26714 11.36361 25474 ft 386 kts 249°
2026-05-05 19:40 41.25790 11.33000 25887 ft 387 kts 250°
2026-05-05 19:41 41.24866 11.29637 26326 ft 388 kts 249°
2026-05-05 19:41 41.23938 11.26265 26763 ft 388 kts 249°
2026-05-05 19:41 41.23006 11.22893 27181 ft 389 kts 249°
2026-05-05 19:41 41.22071 11.19518 27597 ft 388 kts 250°
2026-05-05 19:42 41.21138 11.16152 28017 ft 389 kts 250°
2026-05-05 19:42 41.20204 11.12779 28392 ft 390 kts 250°
2026-05-05 19:42 41.19264 11.09398 28748 ft 391 kts 250°
2026-05-05 19:42 41.18316 11.06002 28974 ft 392 kts 250°
2026-05-05 19:43 41.17383 11.02659 29014 ft 379 kts 250°
2026-05-05 19:43 41.15582 10.96198 29010 ft 371 kts 250°
2026-05-05 19:44 41.13786 10.89795 29009 ft 370 kts 250°
2026-05-05 19:44 41.11995 10.83404 29005 ft 370 kts 250°
2026-05-05 19:45 41.10198 10.77016 29004 ft 369 kts 249°
2026-05-05 19:45 41.08380 10.70603 29000 ft 369 kts 249°
2026-05-05 19:46 41.06575 10.64211 28978 ft 369 kts 249°
2026-05-05 19:46 41.04772 10.57815 28979 ft 370 kts 249°
2026-05-05 19:47 41.02983 10.51489 29002 ft 369 kts 249°
2026-05-05 19:47 41.01167 10.45131 29003 ft 368 kts 249°
2026-05-05 19:48 40.99217 10.38867 29001 ft 368 kts 241°
2026-05-05 19:48 40.95980 10.33828 28998 ft 372 kts 224°
2026-05-05 19:49 40.92024 10.29397 28992 ft 373 kts 223°
2026-05-05 19:49 40.88029 10.25015 28971 ft 373 kts 223°
2026-05-05 19:50 40.84035 10.20622 28972 ft 373 kts 223°
2026-05-05 19:50 40.80046 10.16218 28998 ft 373 kts 223°
2026-05-05 19:51 40.76046 10.11804 29001 ft 372 kts 223°
2026-05-05 19:51 40.72077 10.07433 28998 ft 372 kts 223°
2026-05-05 19:52 40.68101 10.03068 28969 ft 372 kts 223°
2026-05-05 19:52 40.64129 9.98713 28971 ft 372 kts 223°
2026-05-05 19:53 40.60795 9.95052 28825 ft 372 kts 223°
2026-05-05 19:53 40.58816 9.92881 28562 ft 369 kts 223°
2026-05-05 19:53 40.56855 9.90731 28289 ft 367 kts 223°
2026-05-05 19:53 40.54902 9.88591 28023 ft 365 kts 223°
2026-05-05 19:54 40.52948 9.86458 27762 ft 363 kts 223°
2026-05-05 19:54 40.51006 9.84348 27501 ft 362 kts 223°
2026-05-05 19:54 40.49072 9.82247 27250 ft 360 kts 223°
2026-05-05 19:54 40.47148 9.80152 26982 ft 359 kts 223°
2026-05-05 19:55 40.45227 9.78055 26729 ft 358 kts 223°
2026-05-05 19:55 40.43342 9.76001 26484 ft 357 kts 223°
2026-05-05 19:55 40.41433 9.73924 26234 ft 355 kts 223°
2026-05-05 19:55 40.39528 9.71855 25987 ft 354 kts 223°
2026-05-05 19:56 40.37635 9.69800 25738 ft 353 kts 223°
2026-05-05 19:56 40.35752 9.67755 25498 ft 351 kts 223°
2026-05-05 19:56 40.33869 9.65717 25251 ft 350 kts 223°
2026-05-05 19:56 40.31999 9.63693 25016 ft 348 kts 223°
2026-05-05 19:57 40.30128 9.61673 24783 ft 347 kts 222°
2026-05-05 19:57 40.28264 9.59658 24550 ft 347 kts 223°
2026-05-05 19:57 40.26412 9.57653 24316 ft 345 kts 223°
2026-05-05 19:57 40.24562 9.55654 24087 ft 344 kts 223°
2026-05-05 19:58 40.22721 9.53671 23858 ft 343 kts 223°
2026-05-05 19:58 40.20881 9.51684 23634 ft 341 kts 223°
2026-05-05 19:58 40.19057 9.49716 23372 ft 339 kts 223°
2026-05-05 19:58 40.17233 9.47752 23096 ft 339 kts 223°
2026-05-05 19:59 40.15411 9.45794 22855 ft 339 kts 222°
2026-05-05 19:59 40.13591 9.43839 22599 ft 339 kts 221°
2026-05-05 19:59 40.11772 9.41884 22321 ft 338 kts 221°
2026-05-05 19:59 40.09958 9.39938 22058 ft 337 kts 221°
2026-05-05 20:00 40.08173 9.38024 21786 ft 336 kts 221°
2026-05-05 20:00 40.06369 9.36091 21527 ft 335 kts 222°
2026-05-05 20:00 40.04572 9.34168 21269 ft 334 kts 221°
2026-05-05 20:00 40.02777 9.32247 21013 ft 333 kts 221°
2026-05-05 20:01 40.00986 9.30327 20772 ft 334 kts 221°
2026-05-05 20:01 39.99192 9.28406 20527 ft 333 kts 221°
2026-05-05 20:01 39.97400 9.26486 20277 ft 333 kts 221°
2026-05-05 20:01 39.95609 9.24572 20030 ft 332 kts 221°
2026-05-05 20:02 39.93819 9.22663 19786 ft 332 kts 221°
2026-05-05 20:02 39.92030 9.20759 19545 ft 332 kts 221°
2026-05-05 20:02 39.90242 9.18856 19308 ft 332 kts 221°
2026-05-05 20:02 39.88458 9.16956 19061 ft 332 kts 220°
2026-05-05 20:03 39.86623 9.15140 18826 ft 332 kts 213°
2026-05-05 20:03 39.84543 9.13820 18589 ft 334 kts 201°
2026-05-05 20:03 39.82299 9.13013 18358 ft 335 kts 197°
2026-05-05 20:03 39.80045 9.12261 18105 ft 334 kts 197°
2026-05-05 20:04 39.77792 9.11505 17834 ft 333 kts 197°
2026-05-05 20:04 39.75579 9.10758 17572 ft 332 kts 197°
2026-05-05 20:04 39.73346 9.10004 17302 ft 330 kts 197°
2026-05-05 20:04 39.71129 9.09257 17037 ft 329 kts 197°
2026-05-05 20:05 39.68908 9.08511 16501 ft 331 kts 197°
2026-05-05 20:05 39.66661 9.07757 15861 ft 335 kts 197°
2026-05-05 20:05 39.64368 9.07097 15241 ft 340 kts 189°
2026-05-05 20:05 39.61978 9.06936 14635 ft 345 kts 184°
2026-05-05 20:06 39.59569 9.06843 14044 ft 347 kts 184°
2026-05-05 20:06 39.57141 9.06747 13408 ft 349 kts 184°
2026-05-05 20:06 39.54712 9.06648 12763 ft 350 kts 185°
2026-05-05 20:06 39.52307 9.06547 12128 ft 350 kts 185°
2026-05-05 20:07 39.49878 9.06444 11503 ft 349 kts 185°
2026-05-05 20:07 39.47449 9.06342 10887 ft 348 kts 186°
2026-05-05 20:07 39.45032 9.06242 10272 ft 346 kts 185°
2026-05-05 20:07 39.42633 9.06141 9657 ft 343 kts 185°
2026-05-05 20:08 39.40302 9.06048 9003 ft 327 kts 185°
2026-05-05 20:08 39.38077 9.05962 8367 ft 313 kts 185°
2026-05-05 20:08 39.35938 9.05877 7719 ft 301 kts 185°
2026-05-05 20:08 39.33872 9.05792 7107 ft 292 kts 185°
2026-05-05 20:09 39.31870 9.05708 6562 ft 284 kts 186°
2026-05-05 20:09 39.29918 9.05626 5938 ft 277 kts 185°
2026-05-05 20:09 39.28015 9.05541 5316 ft 270 kts 184°
2026-05-05 20:09 39.26251 9.05103 5049 ft 246 kts 205°
2026-05-05 20:10 39.24788 9.04263 5000 ft 221 kts 193°
2026-05-05 20:10 39.23290 9.04362 5010 ft 220 kts 164°
2026-05-05 20:10 39.21874 9.05137 5003 ft 222 kts 158°
2026-05-05 20:10 39.20484 9.06030 5007 ft 223 kts 156°
2026-05-05 20:11 39.19102 9.06936 5009 ft 223 kts 156°
2026-05-05 20:11 39.17720 9.07846 5010 ft 221 kts 156°
2026-05-05 20:11 39.16397 9.08723 5002 ft 206 kts 156°
2026-05-05 20:11 39.15144 9.09554 4998 ft 201 kts 156°
2026-05-05 20:12 39.13895 9.10357 4938 ft 199 kts 156°
2026-05-05 20:12 39.12672 9.11137 4729 ft 195 kts 156°
2026-05-05 20:12 39.11481 9.11896 4604 ft 183 kts 156°
2026-05-05 20:12 39.10349 9.12617 4257 ft 185 kts 156°
2026-05-05 20:13 39.09177 9.13354 3876 ft 189 kts 156°
2026-05-05 20:13 39.07990 9.14095 3503 ft 191 kts 156°
2026-05-05 20:13 39.06788 9.14839 3130 ft 192 kts 156°
2026-05-05 20:13 39.05577 9.15577 2768 ft 193 kts 156°
2026-05-05 20:14 39.04414 9.16315 2687 ft 178 kts 147°
2026-05-05 20:14 39.03753 9.17527 2681 ft 162 kts 101°
2026-05-05 20:14 39.03970 9.18889 2683 ft 158 kts 52°
2026-05-05 20:14 39.04848 9.19706 2690 ft 163 kts 24°
2026-05-05 20:15 39.06022 9.20246 2710 ft 189 kts 14°
2026-05-05 20:15 39.07291 9.20589 2697 ft 184 kts 10°
2026-05-05 20:15 39.08532 9.20757 2699 ft 181 kts
2026-05-05 20:15 39.09788 9.20771 2700 ft 180 kts 359°
2026-05-05 20:16 39.11055 9.20742 2704 ft 179 kts 352°
2026-05-05 20:16 39.12212 9.20268 2704 ft 177 kts 328°
2026-05-05 20:16 39.13156 9.19292 2697 ft 168 kts 316°
2026-05-05 20:16 39.13989 9.18333 2683 ft 156 kts 316°
2026-05-05 20:17 39.14788 9.17411 2490 ft 152 kts 315°
2026-05-05 20:17 39.15572 9.16506 2301 ft 151 kts 316°
2026-05-05 20:17 39.16354 9.15603 2106 ft 151 kts 316°
2026-05-05 20:17 39.17134 9.14701 1913 ft 149 kts 316°
2026-05-05 20:18 39.17905 9.13811 1716 ft 148 kts 316°
2026-05-05 20:18 39.18672 9.12925 1516 ft 148 kts 316°
2026-05-05 20:18 39.19434 9.12043 1315 ft 147 kts 317°
2026-05-05 20:18 39.20194 9.11165 1117 ft 146 kts 317°
2026-05-05 20:19 39.20951 9.10289 924 ft 146 kts 317°
2026-05-05 20:19 39.21709 9.09412 732 ft 146 kts 317°
2026-05-05 20:19 39.22465 9.08537 537 ft 146 kts 317°
2026-05-05 20:19 39.23220 9.07663 331 ft 146 kts 317°
2026-05-05 20:20 39.23972 9.06792 132 ft 145 kts 316°
2026-05-05 20:20 39.24709 9.05937 15 ft 133 kts 317°
2026-05-05 20:20 39.25182 9.05390 15 ft 48 kts 319°
2026-05-05 20:20 39.25309 9.05321 16 ft 14 kts 41°
2026-05-05 20:21 39.25355 9.05381 15 ft 0 kts 48°
2026-05-05 20:21 39.25356 9.05382 15 ft 2 kts 48°
2026-05-05 20:21 39.25398 9.05454 15 ft 14 kts 72°
2026-05-05 20:22 39.25389 9.05568 15 ft 12 kts 103°
2026-05-05 20:22 39.25354 9.05646 16 ft 8 kts 127°
2026-05-05 20:22 39.25342 9.05715 15 ft 7 kts 103°
2026-05-05 20:22 39.25326 9.05770 15 ft 6 kts 112°
2026-05-05 20:23 39.25315 9.05802 17 ft 0 kts 113°